[[{"header":{"parameterUnit":"m.s-1","parameterCategory":2,"la1":30.2992,"la2":30.254,"lo1":-89.0895,"lo2":-89.0443,"dy":0.0025,"dx":0.0025,"nx":19,"ny":19,"refTime":"2026-03-21T09:00:00:Z","depth":"0","parameterNumber":2,"parameterNumberName":"U-component_of_CURRENTS"},"data":[0,0,0,0.09,0.0902,0.1005,0.1005,0.12,0.1202,0,0,0,0,0,0,0,0,0,0,0,0.0858,0.0858,0.09,0.0902,0.1004,0.1005,0.12,0.1202,0,0,0,0,0,0,0,0,0,0,0,0.0857,0.0858,0.0858,0.0902,0.1004,0.1005,0.1199,0.111,0,0,0,0,0,0,0,0,0,0,0.1003,0.0947,0.0858,0.0858,0.0903,0.1004,0.1005,0.1105,0.1115,0.1167,0,0.1167,0,0.1188,0.1215,0.1215,0,0,0,0.0917,0.0937,0.0967,0.0858,0.0903,0.1004,0.0962,0.111,0.1122,0.1181,0.117,0.1177,0.1191,0.1216,0.1217,0.1368,0.1368,0,0,0.0911,0.0883,0.0958,0.0974,0.0912,0.0959,0.0965,0.1117,0.1122,0.117,0.1181,0.1194,0.1217,0.1219,0.1367,0.1368,0,0,0,0.0885,0.0879,0.0904,0.0966,0.0979,0.0962,0.0969,0.1115,0.1123,0.1184,0.1196,0.1218,0.1221,0.1367,0.1368,0.1327,0,0,0,0.0882,0.0863,0.09,0.0886,0.0975,0.1039,0.0964,0.1113,0.113,0.1195,0.1219,0.1223,0.1367,0.1367,0.1328,0.1287,0,0,0,0.0856,0.086,0.0866,0.0884,0.0923,0.1037,0.1054,0.1117,0.1138,0.1216,0.1223,0.1367,0.1367,0.1328,0.1289,0.1233,0,0,0,0.0834,0.0876,0.0865,0.0916,0.0921,0.1019,0.1053,0.1139,0.1205,0.122,0.1367,0.1368,0.1328,0.1291,0.1235,0.1101,0.1081,0,0,0.0887,0.0881,0.0914,0.0908,0.0985,0.1007,0.1085,0.1178,0.1227,0.1324,0.1328,0.1327,0.129,0.1233,0.1126,0.1105,0,0,0,0.0933,0.0944,0.0968,0.1001,0.1059,0.1079,0.1164,0.12,0.1277,0.1264,0.1348,0.1325,0.129,0.1215,0.1199,0.1208,0.137,0.137,0.1369,0.0947,0.0979,0.1022,0.1053,0.1098,0.1152,0.1183,0.1243,0.1296,0.1315,0.1308,0.1258,0.118,0.1166,0.1178,0.1339,0.1339,0.1339,0.1339,0.099,0.1022,0.1025,0.1076,0.109,0.1144,0.1205,0.1228,0.1254,0.1302,0.127,0.1197,0.1145,0.1165,0.1337,0.1337,0.1337,0.1338,0.1338,0.0995,0.1023,0.1022,0.1058,0.1082,0.1115,0.1129,0.1165,0.1202,0.1185,0.1072,0.1072,0.1071,0.115,0.1149,0.1149,0.1149,0.1148,0.1148,0.1014,0.1024,0.1041,0.1046,0.1062,0.1059,0.1075,0.1069,0.1003,0.0999,0.0998,0.1049,0.1199,0.1186,0.1142,0.1143,0.1144,0.1144,0.1145,0.1057,0.1053,0.1085,0.1088,0.1076,0.0999,0.1014,0.0884,0.0849,0.0781,0.0806,0.0905,0.0893,0.0906,0.0886,0.0766,0.0766,0.0766,0.0766,0.1083,0.1081,0.1121,0.1116,0.1073,0.0984,0.0814,0.0691,0.0627,0.0585,0.066,0.0691,0.0706,0.0687,0.0705,0.0684,0.0516,0.0516,0.0516,0.1089,0.112,0.1121,0.111,0.1063,0.0916,0.0677,0.0463,0.0417,0.0515,0.0699,0.071,0.0773,0.0796,0.0786,0.081,0.0783,0,0]},{"header":{"parameterUnit":"m.s-1","parameterCategory":2,"la1":30.2992,"la2":30.254,"lo1":-89.0895,"lo2":-89.0443,"dy":0.0025,"dx":0.0025,"nx":19,"ny":19,"refTime":"2026-03-21T09:00:00:Z","depth":"0","parameterNumber":3,"parameterNumberName":"V-component_of_CURRENTS"},"data":[0,0,0,-0.0064,-0.0062,0.0031,0.0031,0.0227,0.0229,0,0,0,0,0,0,0,0,0,0,0,-0.0083,-0.0082,-0.0064,-0.0062,0.003,0.0031,0.0227,0.0229,0,0,0,0,0,0,0,0,0,0,0,-0.0083,-0.0082,-0.0081,-0.0062,0.003,0.0031,0.0227,0.0141,0,0,0,0,0,0,0,0,0,0,0.0043,-0.0005,-0.0082,-0.0081,-0.0061,0.003,0.0031,0.0137,0.0147,0.0203,0,0.0217,0,0.0218,0.0243,0.0243,0,0,0,-0.0046,-0.0014,0.0021,-0.0081,-0.0061,0.003,-0.0007,0.0142,0.0153,0.0217,0.0219,0.0226,0.0221,0.0244,0.0245,0.0467,0.0468,0,0,-0.0051,-0.0071,0.0012,0.0028,-0.0034,-0.001,-0.0004,0.0148,0.0157,0.022,0.023,0.0224,0.0245,0.0247,0.0466,0.0468,0,0,0,-0.0077,-0.0075,-0.0045,0.0021,0.0026,-0.0008,-0.0001,0.0151,0.0163,0.0232,0.0227,0.0246,0.0249,0.0465,0.0467,0.0474,0,0,0,-0.0079,-0.0091,-0.0048,-0.0059,0.0022,0.0074,-0.0002,0.0153,0.0169,0.0226,0.0247,0.0251,0.0464,0.0466,0.0472,0.0463,0,0,0,-0.0087,-0.0092,-0.0079,-0.006,-0.0028,0.0071,0.0092,0.0156,0.0166,0.0244,0.0251,0.0464,0.0466,0.047,0.046,0.0465,0,0,0,-0.0114,-0.009,-0.0079,-0.0034,-0.0029,0.007,0.0091,0.017,0.0237,0.0248,0.0465,0.0467,0.0469,0.0458,0.0463,0.0435,0.0439,0,0,-0.0097,-0.0088,-0.0054,-0.0043,0.0043,0.0058,0.0171,0.0257,0.0293,0.042,0.0425,0.0473,0.046,0.0465,0.0562,0.0562,0,0,0,-0.0057,-0.0032,-0.0001,0.0052,0.0116,0.0194,0.0262,0.0306,0.0413,0.0339,0.0516,0.0508,0.051,0.0492,0.0493,0.0528,0.0477,0.0477,0.0477,-0.0038,0.0005,0.0068,0.0135,0.0199,0.0302,0.0373,0.0453,0.0474,0.0522,0.0547,0.0599,0.0584,0.0583,0.0621,0.0591,0.0591,0.0591,0.0591,0.0034,0.0081,0.0129,0.0196,0.0275,0.0368,0.0496,0.0523,0.0608,0.0608,0.061,0.0542,0.0584,0.0625,0.0593,0.0592,0.0592,0.0592,0.0592,0.007,0.0091,0.0129,0.0221,0.0308,0.0403,0.0496,0.0573,0.0612,0.0631,0.0596,0.0595,0.0599,0.0621,0.0621,0.0621,0.0621,0.0621,0.0621,0.0095,0.0131,0.0172,0.0249,0.0288,0.037,0.0491,0.0534,0.0583,0.0605,0.0604,0.0638,0.0608,0.057,0.0621,0.0621,0.0621,0.0621,0.0621,0.013,0.0142,0.0202,0.0235,0.0327,0.0383,0.0463,0.052,0.0557,0.0564,0.0631,0.0597,0.0585,0.0585,0.0548,0.059,0.059,0.059,0.059,0.0139,0.0155,0.023,0.0283,0.0344,0.0403,0.0443,0.0491,0.0572,0.0617,0.0641,0.064,0.064,0.0632,0.063,0.0595,0.0648,0.0649,0.0649,0.0151,0.0178,0.0214,0.0281,0.0353,0.0405,0.0432,0.0498,0.0619,0.0657,0.0699,0.0697,0.0703,0.0699,0.0689,0.0684,0.0627,0,0]}],[{"header":{"parameterUnit":"m.s-1","parameterCategory":2,"la1":30.2992,"la2":30.254,"lo1":-89.0895,"lo2":-89.0443,"dy":0.0025,"dx":0.0025,"nx":19,"ny":19,"refTime":"2026-03-21T09:00:00:Z","depth":"2","parameterNumber":2,"parameterNumberName":"U-component_of_CURRENTS"},"data":[0,0,0,0.0062,0.0057,0.0032,0.0033,0.0554,0.0559,0,0,0,0,0,0,0,0,0,0,0,0.0174,0.0173,0.0062,0.0057,0.0032,0.0033,0.0553,0.0559,0,0,0,0,0,0,0,0,0,0,0,0.0174,0.0173,0.0173,0.0056,0.0032,0.0034,0.0552,0.0462,0,0,0,0,0,0,0,0,0,0,0.043,0.0304,0.0173,0.0173,0.0055,0.0031,0.0034,0.0453,0.0468,0.0687,0,0.0664,0,0.0539,0.0596,0.0598,0,0,0,0.0175,0.029,0.0352,0.0173,0.0053,0.0031,0.0077,0.0458,0.0476,0.0709,0.0668,0.0681,0.0548,0.0599,0.0602,0.0968,0.0968,0,0,0.0176,0.0125,0.0337,0.0361,0.0034,0.0076,0.0074,0.0464,0.045,0.067,0.0688,0.0556,0.0603,0.0607,0.0968,0.0968,0,0,0,0.0101,0.0125,0.0167,0.0348,0.025,0.0073,0.0071,0.0434,0.0466,0.0692,0.0562,0.0606,0.0613,0.0968,0.0968,0.0991,0,0,0,0.0108,0.0072,0.0167,0.013,0.0238,0.0228,0.0032,0.0443,0.0475,0.056,0.0606,0.0618,0.0969,0.0968,0.0991,0.0974,0,0,0,0.0177,0.0073,0.0084,0.0129,0.0057,0.0218,0.027,0.0446,0.0395,0.0598,0.062,0.0969,0.0968,0.0991,0.0974,0.0893,0,0,0,0.0116,0.0201,0.0082,0.0075,0.0057,0.018,0.0265,0.0385,0.0556,0.0609,0.0969,0.0968,0.099,0.0974,0.0894,0.0758,0.0741,0,0,0.0233,0.0211,0.0205,0.0098,0.0201,0.0192,0.0332,0.0571,0.0627,0.0903,0.0907,0.0991,0.0974,0.0893,0.0747,0.0729,0,0,0,0.0245,0.0247,0.0273,0.0215,0.028,0.0386,0.0516,0.0579,0.0763,0.0689,0.098,0.0968,0.0916,0.0837,0.0824,0.0967,0.0967,0.0967,0.0967,0.0348,0.0304,0.0377,0.0398,0.0446,0.0538,0.0643,0.0738,0.0855,0.0881,0.0981,0.0924,0.0843,0.083,0.0987,0.0987,0.0987,0.0987,0.0987,0.043,0.0439,0.0405,0.0476,0.0569,0.0681,0.0805,0.0841,0.0936,0.0987,0.0935,0.0859,0.0816,0.0989,0.0988,0.0988,0.0988,0.0988,0.0988,0.0417,0.0475,0.0464,0.0507,0.0634,0.0742,0.079,0.0856,0.0913,0.0914,0.0768,0.0766,0.09,0.0876,0.0876,0.0875,0.0875,0.0875,0.0875,0.0428,0.0478,0.0516,0.0572,0.0649,0.0679,0.076,0.0772,0.0734,0.0747,0.0745,0.0884,0.0888,0.089,0.0868,0.0869,0.087,0.0871,0.0871,0.0452,0.0478,0.0523,0.0581,0.0654,0.0627,0.0669,0.058,0.0568,0.0505,0.0625,0.0633,0.059,0.06,0.0594,0.0496,0.0496,0.0496,0.0496,0.0477,0.0495,0.0584,0.0667,0.0652,0.0624,0.05,0.0392,0.0364,0.0332,0.0339,0.0368,0.0385,0.0333,0.0349,0.0339,0.0175,0.0175,0.0174,0.0509,0.0558,0.0655,0.0738,0.0712,0.0586,0.0369,0.0189,0.0117,0.0168,0.0351,0.0461,0.0525,0.0544,0.0485,0.0503,0.0495,0,0]},{"header":{"parameterUnit":"m.s-1","parameterCategory":2,"la1":30.2992,"la2":30.254,"lo1":-89.0895,"lo2":-89.0443,"dy":0.0025,"dx":0.0025,"nx":19,"ny":19,"refTime":"2026-03-21T09:00:00:Z","depth":"2","parameterNumber":3,"parameterNumberName":"V-component_of_CURRENTS"},"data":[0,0,0,-0.0202,-0.0204,-0.0175,-0.0174,0.0084,0.0086,0,0,0,0,0,0,0,0,0,0,0,-0.0142,-0.0142,-0.0202,-0.0204,-0.0175,-0.0174,0.0084,0.0086,0,0,0,0,0,0,0,0,0,0,0,-0.0142,-0.0142,-0.0141,-0.0204,-0.0175,-0.0173,0.0083,0.0025,0,0,0,0,0,0,0,0,0,0,-0.0022,-0.0086,-0.0142,-0.0141,-0.0205,-0.0175,-0.0173,0.0021,0.0029,0.0109,0,0.0108,0,0.0042,0.0101,0.0102,0,0,0,-0.0125,-0.0094,-0.0053,-0.0141,-0.0206,-0.0176,-0.0166,0.0024,0.0034,0.0121,0.011,0.0116,0.0046,0.0103,0.0104,0.0341,0.0342,0,0,-0.0127,-0.016,-0.006,-0.0048,-0.0202,-0.0167,-0.0166,0.0028,0.0022,0.0111,0.012,0.005,0.0104,0.0106,0.034,0.0341,0,0,0,-0.0185,-0.0161,-0.0128,-0.0054,-0.0101,-0.0168,-0.0166,0.0015,0.0034,0.0121,0.0053,0.0105,0.0108,0.0339,0.0341,0.035,0,0,0,-0.0182,-0.0201,-0.0129,-0.0151,-0.0107,-0.0096,-0.0185,0.0024,0.0039,0.0052,0.0105,0.011,0.0338,0.034,0.0348,0.0351,0,0,0,-0.0142,-0.02,-0.0188,-0.0153,-0.0181,-0.01,-0.0069,0.0026,-0.0005,0.0102,0.0111,0.0338,0.034,0.0345,0.0348,0.0356,0,0,0,-0.0182,-0.0178,-0.0189,-0.0172,-0.0182,-0.0107,-0.0071,-0.0013,0.0075,0.0107,0.0338,0.0341,0.0345,0.0346,0.0354,0.0308,0.0312,0,0,-0.0191,-0.018,-0.0153,-0.0164,-0.0107,-0.0105,-0.0006,0.0105,0.0144,0.0301,0.0306,0.0348,0.0348,0.0355,0.0434,0.0434,0,0,0,-0.0162,-0.014,-0.0113,-0.0094,-0.0049,0.0026,0.0081,0.0132,0.0265,0.0184,0.0391,0.0391,0.0394,0.0365,0.0366,0.0351,0.0351,0.035,0.035,-0.0167,-0.0123,-0.0072,0.0001,0.0047,0.0121,0.0209,0.0295,0.0323,0.0375,0.0429,0.0485,0.0457,0.0457,0.0466,0.0466,0.0466,0.0466,0.0466,-0.0108,-0.0061,-0.0015,0.0048,0.0127,0.0213,0.0347,0.0378,0.049,0.049,0.0492,0.0416,0.0457,0.0468,0.0467,0.0467,0.0467,0.0467,0.0467,-0.0078,-0.006,-0.0016,0.0063,0.0159,0.0265,0.0371,0.0453,0.0501,0.0527,0.0484,0.0483,0.046,0.052,0.052,0.052,0.052,0.052,0.052,-0.0067,-0.0029,0.0011,0.0092,0.0145,0.0239,0.0378,0.0435,0.0485,0.0502,0.0502,0.0503,0.0502,0.0465,0.0522,0.0521,0.0521,0.0521,0.0521,-0.0048,-0.0033,0.0024,0.0069,0.0188,0.0269,0.036,0.043,0.047,0.0474,0.0487,0.0488,0.0476,0.0475,0.0439,0.0486,0.0486,0.0486,0.0486,-0.005,-0.003,0.0059,0.0139,0.022,0.0303,0.0362,0.038,0.0413,0.041,0.0414,0.0389,0.0392,0.0374,0.0376,0.0337,0.0357,0.0357,0.0357,-0.0046,-0.0005,0.0057,0.016,0.0261,0.0328,0.0356,0.0332,0.0324,0.0352,0.0394,0.0477,0.0448,0.045,0.0428,0.0429,0.0369,0,0]}],[{"header":{"parameterUnit":"m.s-1","parameterCategory":2,"la1":30.2992,"la2":30.254,"lo1":-89.0895,"lo2":-89.0443,"dy":0.0025,"dx":0.0025,"nx":19,"ny":19,"refTime":"2026-03-21T09:00:00:Z","depth":"4","parameterNumber":2,"parameterNumberName":"U-component_of_CURRENTS"},"data":[0,0,0,-0.0839,-0.084,-0.1026,-0.1028,-0.1355,-0.1357,0,0,0,0,0,0,0,0,0,0,0,-0.0819,-0.082,-0.0839,-0.084,-0.1026,-0.1028,-0.1354,-0.1357,0,0,0,0,0,0,0,0,0,0,0,-0.0819,-0.082,-0.0821,-0.084,-0.1025,-0.1028,-0.1354,-0.121,0,0,0,0,0,0,0,0,0,0,-0.1027,-0.0967,-0.082,-0.0821,-0.0841,-0.1025,-0.1028,-0.1203,-0.1219,-0.1272,0,-0.1281,0,-0.1274,-0.1374,-0.1375,0,0,0,-0.0919,-0.0954,-0.0981,-0.0821,-0.0841,-0.1024,-0.0964,-0.1212,-0.123,-0.1293,-0.1286,-0.1296,-0.1279,-0.1375,-0.1377,-0.1608,-0.1608,0,0,-0.0908,-0.0886,-0.0968,-0.0991,-0.0866,-0.0958,-0.0969,-0.1223,-0.1246,-0.1287,-0.1303,-0.1285,-0.1377,-0.1379,-0.1607,-0.1608,0,0,0,-0.0826,-0.0878,-0.0901,-0.098,-0.0977,-0.0961,-0.0974,-0.1238,-0.1238,-0.1306,-0.1289,-0.1379,-0.1382,-0.1606,-0.1607,-0.1539,0,0,0,-0.0824,-0.0824,-0.0896,-0.0889,-0.097,-0.1092,-0.0983,-0.1223,-0.1248,-0.1287,-0.1379,-0.1384,-0.1605,-0.1607,-0.1539,-0.1498,0,0,0,-0.0815,-0.0823,-0.0832,-0.0886,-0.0923,-0.1087,-0.1108,-0.1229,-0.1234,-0.1375,-0.1385,-0.1605,-0.1607,-0.154,-0.1499,-0.1402,0,0,0,-0.0805,-0.0816,-0.0832,-0.0895,-0.092,-0.1036,-0.1106,-0.1262,-0.1389,-0.138,-0.1606,-0.1607,-0.154,-0.15,-0.1404,-0.1226,0,0,0,-0.0807,-0.0816,-0.0867,-0.0883,-0.1,-0.1017,-0.1183,-0.139,-0.1424,-0.154,-0.1546,-0.1539,-0.15,-0.1402,-0.1323,0,0,0,0,-0.0864,-0.0895,-0.0934,-0.1026,-0.1096,-0.1199,-0.1351,-0.1386,-0.1509,-0.1484,-0.1591,-0.1569,-0.1507,-0.1416,-0.1615,-0.1615,-0.1614,-0.1614,-0.1614,-0.0854,-0.0948,-0.1058,-0.1176,-0.1245,-0.1374,-0.1443,-0.1523,-0.1554,-0.1585,-0.1551,-0.1485,-0.1394,-0.1603,-0.1603,-0.1603,-0.1603,-0.1602,-0.1602,-0.0929,-0.1004,-0.116,-0.1282,-0.1394,-0.1493,-0.1551,-0.1566,-0.153,-0.1565,-0.1507,-0.1402,-0.1597,-0.1598,-0.1599,-0.1599,-0.16,-0.16,-0.16,-0.0944,-0.0976,-0.1127,-0.1329,-0.1426,-0.1495,-0.1446,-0.1466,-0.1455,-0.1408,-0.1236,-0.1422,-0.1378,-0.1327,-0.1326,-0.1325,-0.1325,-0.1324,-0.1324,-0.0861,-0.1011,-0.1124,-0.1304,-0.1343,-0.1332,-0.1313,-0.1238,-0.1227,-0.1137,-0.1333,-0.1391,-0.14,-0.1363,-0.1315,-0.1317,-0.1318,-0.1319,-0.1319,-0.0791,-0.0878,-0.0993,-0.1079,-0.1149,-0.1119,-0.1135,-0.0971,-0.0859,-0.0766,-0.0994,-0.1013,-0.1002,-0.1019,-0.0969,-0.0801,-0.0798,-0.0796,0,-0.0694,-0.0763,-0.0866,-0.0914,-0.091,-0.0954,-0.0756,-0.0695,-0.07,-0.0706,-0.0856,-0.1122,-0.1133,-0.1134,-0.1145,-0.1091,0,0,0,-0.0631,-0.0649,-0.067,-0.0774,-0.0771,-0.0666,-0.0685,-0.0609,-0.0754,-0.0565,-0.0731,-0.0748,-0.1056,-0.1288,-0.1315,-0.1326,-0.1267,0,0]},{"header":{"parameterUnit":"m.s-1","parameterCategory":2,"la1":30.2992,"la2":30.254,"lo1":-89.0895,"lo2":-89.0443,"dy":0.0025,"dx":0.0025,"nx":19,"ny":19,"refTime":"2026-03-21T09:00:00:Z","depth":"4","parameterNumber":3,"parameterNumberName":"V-component_of_CURRENTS"},"data":[0,0,0,0.0137,0.0136,0.0118,0.0118,0.0123,0.0123,0,0,0,0,0,0,0,0,0,0,0,0.0162,0.0162,0.0137,0.0136,0.0118,0.0118,0.0123,0.0123,0,0,0,0,0,0,0,0,0,0,0,0.0162,0.0162,0.0162,0.0136,0.0118,0.0118,0.0123,0.0133,0,0,0,0,0,0,0,0,0,0,0.0149,0.0164,0.0162,0.0162,0.0135,0.0118,0.0118,0.0134,0.0133,0.0135,0,0.0136,0,0.0115,0.0123,0.0123,0,0,0,0.015,0.0165,0.0153,0.0162,0.0135,0.0118,0.013,0.0133,0.0132,0.0134,0.0136,0.0135,0.0115,0.0123,0.0123,0.0147,0.0147,0,0,0.0151,0.0165,0.0154,0.0152,0.0135,0.013,0.0129,0.0132,0.0138,0.0136,0.0135,0.0115,0.0123,0.0123,0.0147,0.0147,0,0,0,0.0144,0.0166,0.0154,0.0153,0.0139,0.013,0.0128,0.0139,0.0133,0.0135,0.0116,0.0123,0.0123,0.0146,0.0147,0.0158,0,0,0,0.0146,0.016,0.0155,0.0163,0.0139,0.0133,0.0135,0.0133,0.0132,0.0116,0.0123,0.0123,0.0146,0.0147,0.0157,0.0152,0,0,0,0.0162,0.0161,0.016,0.0164,0.0146,0.0133,0.0128,0.0133,0.0119,0.0123,0.0123,0.0146,0.0146,0.0156,0.0151,0.0149,0,0,0,0.0176,0.013,0.0161,0.01,0.0146,0.0087,0.0127,0.0128,0.0134,0.0123,0.0146,0.0147,0.0156,0.0151,0.0149,0.009,0,0,0,0.011,0.0124,0.0081,0.0105,0.0042,0.0091,0.0061,0.0116,0.0146,0.0149,0.0149,0.0157,0.0151,0.0149,0.0133,0,0,0,0,0.0052,0.004,0.0016,0.0,-0.0023,0.0008,0.0052,0.0091,0.016,0.0148,0.0168,0.0164,0.0162,0.0128,0.015,0.015,0.015,0.015,0.015,0.0014,-0.0005,-0.0061,-0.0068,-0.0075,-0.0024,0.001,0.0084,0.012,0.0181,0.0182,0.0199,0.0165,0.0197,0.0197,0.0197,0.0197,0.0197,0.0197,-0.0074,-0.0111,-0.0086,-0.0121,-0.007,-0.0039,0.0016,0.0088,0.0159,0.0196,0.0193,0.0154,0.0199,0.0199,0.0198,0.0198,0.0198,0.0198,0.0198,-0.0092,-0.0118,-0.0101,-0.0107,-0.0052,0.0006,0.0036,0.0115,0.0176,0.0189,0.0169,0.0203,0.0191,0.0212,0.0212,0.0212,0.0212,0.0211,0.0211,-0.0119,-0.0129,-0.0095,-0.0095,-0.0043,0.002,0.0081,0.008,0.0131,0.017,0.0212,0.0204,0.0203,0.0191,0.0211,0.0211,0.0211,0.0211,0.0211,-0.018,-0.0134,-0.0108,-0.0059,-0.0004,0.0007,0.0042,0.004,0.0045,0.0032,0.0146,0.0149,0.0135,0.0136,0.0122,0.0121,0.0121,0.012,0,-0.018,-0.0181,-0.0083,-0.0032,-0.0005,-0.0001,-0.0016,-0.0032,0.0018,0.0082,0.003,0.0163,0.0165,0.015,0.0149,0.0132,0,0,0,-0.0195,-0.0157,-0.0074,-0.0024,0.0014,-0.0015,-0.001,0.0005,0.0047,-0.0052,0.0102,0.0107,0.0012,0.0211,0.0196,0.0196,0.0176,0,0]}]]